Кургальджинский

Kazakhstan     50˚36′00″N   70˚01′01″E
temp.,
°C
wind,
m/s
gust,
m/s
humid.,
%
clouds,
%
prec.,
mm/h
press.,
hPa
HPBL,
m
28 november, sat
sat2823:00−7˚e359085 0.0 102894
02:00−7˚ene4889100 0.0 1027153
05:00−6˚ene5986100 0.0 1024266
08:00−6˚ne61192100 0.4 1023380
11:00−6˚ne71195100 3.6 1023460
14:00−8˚nne91394100 2.9 1024475
17:00−10˚n81394100 5.5 1027536
20:00−11˚n71294100 2.1 1031470
29 november, sun
sun2923:00−11˚nnw61094100 3.1 1034425
02:00−12˚nw61094100 0.8 1037398
05:00−12˚nnw5993100 1.6 1040362
08:00−13˚nw51093100 0.1 1042290
11:00−13˚nw61092100 0.1 1044347
14:00−13˚nnw489388 0.0 1045309
17:00−15˚nw459580 0.0 104769
20:00−16˚nnw449677 0.0 104862
30 november, mon
mon3023:00−17˚nnw339684 0.0 104925
02:00−17˚n2396100 0.0 105020
05:00−19˚nne2397100 0.0 105020
08:00−20˚ne229971 0.0 105120
11:00−18˚ene239540 0.0 105171
14:00−18˚ene22933 0.0 105135
17:00−20˚ene33951 0.0 105222
20:00−21˚ene45950 0.0 105258
1 december, tue
tue123:00−21˚ene34960 0.0 105138
02:00−21˚ene45960 0.0 105156
05:00−22˚ene47940 0.0 105195
08:00−21˚ene57910 0.0 105095
11:00−16˚ene510900 0.0 1050254
14:00−14˚ene610910 0.0 1048260
17:00−15˚ene612910 0.0 1047194
20:00−15˚ene611900 0.0 1047187
2 december, wed
wed223:00−14˚ene612880 0.0 1047225
02:00−14˚e815860 0.0 1045308
05:00−14˚e7158510 0.0 1044311
08:00−14˚e7148561 0.0 1044277
11:00−12˚e7128476 0.0 1042322
14:00−11˚e5108551 0.0 1040261
17:00−14˚e588737 0.0 1039123
20:00−15˚e69866 0.0 1038129